Location: Eurasberg
(48.3353°N, 11.0839°E)
Time: 08:40:32
(UTC+00:00)

Cosmos 2181 Rocket - Pass Details

Date: 18 January 2026
Orbit: 952 x 1013 km, 82.9° (Epoch: 17 February)

Event Time Altitude Azimuth Distance (km) Brightness Sun altitude
Rises 04:46:45 0° 346° (NNW) 3,725 6.8 -21.6°
Reaches altitude 10° 04:49:22 10° 341° (NNW) 2,780 6.1 -21.2°
Maximum altitude 04:55:23 46° 270° (W) 1,330 4.2 -20.2°
Drops below altitude 10° 05:01:27 10° 200° (SSW) 2,786 6.3 -19.2°
Sets 05:04:04 0° 194° (SSW) 3,734 7.0 -18.8°
